View from above orbital plane
|
View from above satellite
|
Ground track
|
The orbit data is extracted from the following two-line orbital elements,
1 19687U 88109A 21025.81395477 -.00000272 00000-0 00000-0 0 9993
2 19687 14.8732 352.3929 0005098 314.0095 222.8822 0.99672732 98542
Epoch (UTC): | 25 January 2021 19:32:05 |
Eccentricity: | 0.0005098 |
inclination: | 14.8732° |
perigee height: | 35933 km |
apogee height: | 35976 km |
right ascension of ascending node: | 352.3929° |
argument of perigee: | 314.0095° |
revolutions per day: | 0.99672732 |
mean anomaly at epoch: | 222.8822° |
orbit number at epoch: | 9854 |
The dashed part of the orbit path shows where the satellite is in the earth's shadow,
|
|